Regional Weather Roundup
Issued by NWS

Home | Current Version | Previous Version | Text Only | Print | Product List | Glossary On
Versions: 1 2 3 4 5 6 7 8 9 10 11 12 13 14 15 16 17 18 19 20 21 22 23 24 25 26 27 28 29 30 31 32 33 34 35 36 37 38 39 40 41 42 43 44 45 46 47 48 49 50
000
ASUS43 KDMX 280107
RWRIA

WEATHER ROUNDUP FOR IOWA
NATIONAL WEATHER SERVICE DES MOINES IA
800 PM CDT MON JUL 27 2015

NOTE: "FAIR" INDICATES FEW OR NO CLOUDS BELOW 12,000 FEET WITH NO
SIGNIFICANT WEATHER AND/OR OBSTRUCTIONS TO VISIBILITY.

* - THESE STATIONS ARE NOT NWS STATIONS...THUS NOT UNDER NWS
QUALITY CONTROL.  THEY ALSO DO NOT REPORT WEATHER SUCH
AS PRECIPITATION OR FOG.

IAZ001>003-012>014-020>022-031>034-043>046-280200-
   NORTHWEST IOWA

CITY           SKY/WX    TMP DP  RH WIND       PRES   REMARKS
CARROLL *      PTCLDY    73  68  83 S14       29.88S
CHEROKEE *     PTCLDY    77  72  83 S10G18    29.85S
DENISON *      CLEAR     75  70  83 SE14G21   29.85F
LE MARS *      CLEAR     81  73  78 SE15G22   29.82S HX  85
ORANGE CITY *  CLEAR     79  73  83 SE8       29.84R HX  82
SHELDON *      CLEAR     79  73  83 SE10G17   29.83S HX  82
SIOUX CITY     CLEAR     82  73  74 SE16G25   29.81S HX  87
SPENCER        CLEAR     81  69  67 SE14G25   29.86S HX  84
STORM LAKE *   CLEAR     75  70  83 S12G20    29.88S
$$

IAZ055>058-069>071-079>083-090>094-280200-
   SOUTHWEST IOWA

CITY           SKY/WX    TMP DP  RH WIND       PRES   REMARKS
ATLANTIC *     PTCLDY    77  72  83 SE8G16    29.88F
AUDUBON *      CLEAR     75  68  78 SE7       29.90F
CLARINDA *     CLEAR     79  72  78 VRB6G16   29.90S HX  82
COUNCIL BLFS * PTCLDY    77  70  78 SE13G22   29.86F
CRESTON *      CLEAR     75  72  88 SE15      29.91F
HARLAN  *      PTCLDY    77  75  94 SE12G20   29.91F
LAMONI         PTCLDY    78  72  81 SE9       29.92F HX  80
RED OAK *      CLEAR     79  72  78 SE10G22   29.88S HX  82
SHENANDOAH *   CLEAR     79  73  83 E14       29.87S HX  82
$$

IAZ047>049-059>061-072>074-084-280200-
   CENTRAL IOWA

CITY           SKY/WX    TMP DP  RH WIND       PRES   REMARKS
AMES           PTCLDY    75  68  78 SE7       29.90R
ANKENY *       CLEAR     75  70  83 S6        29.88F
CHARITON *     PTCLDY    73  72  94 SE8       29.92S
DES MOINES     MOCLDY    75  67  76 S9        29.89F
GRINNELL*      MOCLDY    73  70  88 E9        29.92R
KNOXVILLE *    CLEAR     73  70  88 SE8       29.90S
MARSHALLTOWN   MOCLDY    74  70  87 SE10      29.91S
PELLA *        MOCLDY    73  73 100 SE6       29.91F
PERRY *          N/A     75  68  78 S9        29.89S
$$

IAZ004>006-015-016-023>025-035-036-280200-
   NORTH CENTRAL IOWA

CITY           SKY/WX    TMP DP  RH WIND       PRES   REMARKS
ALGONA *       CLEAR     77  68  73 SE9G17    29.90S
CLARION *      CLEAR     73  68  83 SE9       29.91S
ESTHERVILLE    CLEAR     77  68  73 SE17      29.88R
FORT DODGE *   PTCLDY    75  66  73 E7        29.91R
MASON CITY     PTCLDY    73  70  90 SE10      29.94R
FOREST CITY *  MOCLDY    77  66  69 SE9       29.92S
IOWA FALLS *     N/A     73  68  83 SE5       29.93S
$$

IAZ007>011-017>019-026>030-037>042-050>054-066-280200-
   NORTHEAST IOWA

CITY           SKY/WX    TMP DP  RH WIND       PRES   REMARKS
CEDAR RAPIDS   CLOUDY    78  75  90 SE6       29.93F HX  81
CHARLES CITY * MOCLDY    79  75  89 SE7       29.95R HX  82
CLINTON *      CLOUDY    81  72  74 CALM      29.98S HX  84
DECORAH *      CLEAR     79  72  78 SE6       29.95S HX  82
DUBUQUE        MOCLDY    79  71  76 SE6       29.97S HX  82
MONTICELLO *   CLEAR     79  73  83 SE5       29.95S HX  82
OELWEIN *      CLEAR     79  73  83 SE9       29.95F HX  82
WATERLOO       MOCLDY    79  72  79 SE8       29.91S HX  82
$$

IAZ064-065-067-068-078-280200-
   EAST CENTRAL IOWA

CITY           SKY/WX    TMP DP  RH WIND       PRES   REMARKS
DAVENPORT      CLOUDY    80  73  79 SE6       29.96F HX  84
IOWA CITY      CLOUDY    79  73  82 SE7       29.94F HX  82
MT. PLEASANT * LGT RAIN  79  75  89 S3        29.95F HX  82
MUSCATINE *    CLEAR     81  73  78 S3        29.95S HX  85
QUAD CITIES    CLOUDY    80  74  81 S3        29.95F HX  85
$$

IAZ062-063-075>077-085>089-095>099-280200-
   SOUTHEAST IOWA

CITY           SKY/WX    TMP DP  RH WIND       PRES   REMARKS
BURLINGTON     LGT RAIN  77  76  96 S3        29.98S FOG
FAIRFIELD *    CLOUDY    75  73  94 E10       29.91F
FORT MADISON * RAIN      75  75 100 SE3       29.98F
KEOKUK *       CLOUDY    75  75 100 E5        29.96F
OSKALOOSA *      N/A     73  70  88 SE5       29.91F
CENTERVILLE *  CLEAR     75  73  94 SE5       29.95R
OTTUMWA        CLOUDY    75  73  93 SE9       29.90F
WASHINGTON *   CLOUDY    75  75 100 SE5       29.94F
$$

ABBREVIATIONS USED IN REMARKS
   TC - TEMPERATURES IN CELSIUS
  WCI - WIND CHILL INDEX
   HX - HEAT INDEX
  VSB - VISIBILITY
$$



USA.gov is the U.S. government's official web portal to all federal, state and local government web resources and services.